Regional Weather Roundup
Issued by NWS

Home | Current Version | Previous Version | Text Only | Print | Product List | Glossary Off
Versions: 1 2 3 4 5 6 7 8 9 10 11 12 13 14 15 16 17 18 19 20 21 22 23 24 25 26 27 28 29 30 31 32 33 34 35 36 37 38 39 40 41 42 43 44 45 46 47 48 49 50

000
ASUS43 KBIS 192110
RWRND

NORTH DAKOTA REGIONAL WEATHER ROUNDUP
NATIONAL WEATHER SERVICE BISMARCK ND
400 PM CDT THU APR 19 2018

NOTE: "FAIR" INDICATES FEW OR NO CLOUDS BELOW 12,000 FEET WITH NO
SIGNIFICANT WEATHER AND/OR OBSTRUCTIONS TO VISIBILITY.


NDZ001>003-009>011-017-192200-
NORTHWEST NORTH DAKOTA

CITY           SKY/WX    TMP DP  RH WIND       PRES   REMARKS
WILLISTON      FAIR      54  33  45 E10       30.32F
MINOT          FAIR      48  35  60 VRB3      30.37F
MINOT AFB      FAIR      47  35  64 SW6       30.36F
$$

NDZ018>021-031>035-040>046-192200-
SOUTHWEST NORTH DAKOTA

CITY           SKY/WX    TMP DP  RH WIND       PRES   REMARKS
BISMARCK       FAIR      56  28  34 SE8       30.36F
DICKINSON      FAIR      58  26  29 S14G22    30.26F
GARRISON         N/A     45  35  68 E7        30.37F
HETTINGER ARPT FAIR      56  28  34 SE14G20   30.28F
$$

NDZ004>008-012>016-024-026-027-054-192200-
NORTHEAST NORTH DAKOTA

CITY           SKY/WX    TMP DP  RH WIND       PRES   REMARKS
GRAND FORKS    FAIR      55  30  38 SW6       30.38F
GRND FRKS AFB  FAIR      56  30  38 S13       30.38F
DEVILS LAKE    FAIR      51  33  50 SW9       30.39F
$$

NDZ022-023-025-028>030-036>039-047>053-192200-
SOUTHEAST NORTH DAKOTA

CITY           SKY/WX    TMP DP  RH WIND       PRES   REMARKS
FARGO          FAIR      56  29  35 VRB6      30.40F
JAMESTOWN      FAIR      54  27  35 VRB3      30.38F
$$





USA.gov is the U.S. government's official web portal to all federal, state and local government web resources and services.